Météo par heure à Alhimovo

Ce jour, 15 Mai, Samedi

Heure Température Précipitation Vent Pression Humidité
00:00 +12°C° 0 mm 2 m/s 751 mmHg 94%
01:00 +10°C° 0 mm 2 m/s 751 mmHg 94%
02:00 +10°C° 0 mm 2 m/s 751 mmHg 95%
03:00 +10°C° 0 mm 2 m/s 750 mmHg 94%
04:00 +10°C° 0 mm 2 m/s 750 mmHg 94%
05:00 +11°C° 0 mm 1 m/s 750 mmHg 94%
06:00 +12°C° 0.1 mm 1 m/s 750 mmHg 92%
07:00 +13°C° 0.1 mm 1 m/s 750 mmHg 90%
08:00 +13°C° 0.1 mm 0 m/s 750 mmHg 89%
09:00 +15°C° 0.4 mm 1 m/s 750 mmHg 87%
10:00 +16°C° 0.4 mm 1 m/s 750 mmHg 86%
11:00 +16°C° 0.4 mm 1 m/s 750 mmHg 85%
12:00 +19°C° 0.4 mm 1 m/s 749 mmHg 80%
13:00 +20°C° 0.4 mm 1 m/s 749 mmHg 76%
14:00 +21°C° 0.4 mm 1 m/s 749 mmHg 71%
15:00 +20°C° 0.6 mm 1 m/s 749 mmHg 73%
16:00 +20°C° 0.6 mm 1 m/s 749 mmHg 76%
17:00 +18°C° 0.6 mm 2 m/s 749 mmHg 78%
18:00 +17°C° 0.4 mm 2 m/s 749 mmHg 83%
19:00 +16°C° 0.4 mm 2 m/s 749 mmHg 88%
20:00 +14°C° 0.4 mm 2 m/s 749 mmHg 93%
21:00 +14°C° 0 mm 2 m/s 749 mmHg 94%
22:00 +13°C° 0 mm 2 m/s 749 mmHg 95%
23:00 +13°C° 0 mm 2 m/s 749 mmHg 96%

Demain, 16 Mai, Dimanche

Heure Température Précipitation Vent Pression Humidité
00:00 +12°C° 0 mm 2 m/s 750 mmHg 96%
01:00 +10°C° 0 mm 2 m/s 750 mmHg 95%
02:00 +10°C° 0 mm 2 m/s 750 mmHg 95%
03:00 +9°C° 0 mm 2 m/s 751 mmHg 95%
04:00 +9°C° 0 mm 2 m/s 751 mmHg 96%
05:00 +9°C° 0 mm 2 m/s 751 mmHg 97%
06:00 +12°C° 0 mm 2 m/s 752 mmHg 92%
07:00 +13°C° 0 mm 2 m/s 752 mmHg 86%
08:00 +14°C° 0 mm 2 m/s 752 mmHg 81%
09:00 +16°C° 0 mm 2 m/s 753 mmHg 71%
10:00 +18°C° 0 mm 2 m/s 753 mmHg 61%
11:00 +19°C° 0 mm 2 m/s 753 mmHg 50%
12:00 +20°C° 0 mm 2 m/s 753 mmHg 49%
13:00 +21°C° 0 mm 2 m/s 753 mmHg 48%
14:00 +22°C° 0 mm 1 m/s 753 mmHg 46%
15:00 +22°C° 0 mm 1 m/s 753 mmHg 52%
16:00 +21°C° 0 mm 1 m/s 753 mmHg 58%
17:00 +20°C° 0 mm 1 m/s 753 mmHg 63%
18:00 +19°C° 0 mm 1 m/s 753 mmHg 69%
19:00 +18°C° 0 mm 1 m/s 753 mmHg 74%
20:00 +15°C° 0 mm 1 m/s 753 mmHg 79%
21:00 +15°C° 0 mm 1 m/s 753 mmHg 82%
22:00 +14°C° 0 mm 2 m/s 753 mmHg 85%
23:00 +13°C° 0 mm 2 m/s 753 mmHg 88%

Après-demain, 17 Mai, Lundi

Heure Température Précipitation Vent Pression Humidité
00:00 +13°C° 0 mm 2 m/s 753 mmHg 90%
01:00 +12°C° 0 mm 2 m/s 753 mmHg 92%
02:00 +12°C° 0 mm 2 m/s 753 mmHg 95%
03:00 +12°C° 0 mm 2 m/s 753 mmHg 94%
04:00 +12°C° 0 mm 2 m/s 753 mmHg 93%
05:00 +12°C° 0 mm 2 m/s 753 mmHg 92%
06:00 +13°C° 0 mm 3 m/s 753 mmHg 85%
07:00 +15°C° 0 mm 4 m/s 753 mmHg 77%
08:00 +19°C° 0 mm 4 m/s 753 mmHg 69%
09:00 +20°C° 0.1 mm 5 m/s 752 mmHg 66%
10:00 +21°C° 0.1 mm 5 m/s 752 mmHg 62%
11:00 +22°C° 0.1 mm 5 m/s 752 mmHg 59%
12:00 +21°C° 0.4 mm 5 m/s 752 mmHg 63%
13:00 +21°C° 0.4 mm 4 m/s 752 mmHg 67%
14:00 +20°C° 0.4 mm 4 m/s 751 mmHg 71%
15:00 +19°C° 0.8 mm 3 m/s 751 mmHg 76%
16:00 +19°C° 0.8 mm 3 m/s 751 mmHg 80%
17:00 +18°C° 0.8 mm 2 m/s 751 mmHg 85%
18:00 +17°C° 1 mm 2 m/s 751 mmHg 89%
19:00 +16°C° 1 mm 2 m/s 751 mmHg 93%
20:00 +15°C° 1 mm 1 m/s 751 mmHg 97%
21:00 +14°C° 2.9 mm 1 m/s 750 mmHg 97%
22:00 +14°C° 2.9 mm 1 m/s 750 mmHg 98%
23:00 +14°C° 2.9 mm 1 m/s 750 mmHg 99%

18 Mai, Mardi

Heure Température Précipitation Vent Pression Humidité
00:00 +14°C° 0.6 mm 2 m/s 749 mmHg 98%
01:00 +14°C° 0.6 mm 2 m/s 748 mmHg 98%
02:00 +13°C° 0.6 mm 3 m/s 747 mmHg 98%
03:00 +13°C° 1.8 mm 3 m/s 746 mmHg 98%
04:00 +14°C° 1.8 mm 3 m/s 745 mmHg 98%
05:00 +14°C° 1.8 mm 3 m/s 744 mmHg 98%
06:00 +14°C° 0.8 mm 3 m/s 744 mmHg 98%
07:00 +13°C° 0.8 mm 3 m/s 745 mmHg 97%
08:00 +14°C° 0.8 mm 2 m/s 745 mmHg 96%
09:00 +15°C° 0.1 mm 2 m/s 745 mmHg 96%
10:00 +15°C° 0.1 mm 2 m/s 745 mmHg 95%
11:00 +15°C° 0.1 mm 2 m/s 745 mmHg 95%
12:00 +15°C° 0.5 mm 2 m/s 745 mmHg 95%
13:00 +15°C° 0.5 mm 2 m/s 745 mmHg 96%
14:00 +14°C° 0.5 mm 2 m/s 745 mmHg 96%
15:00 +13°C° 0.2 mm 3 m/s 745 mmHg 96%
16:00 +12°C° 0.2 mm 3 m/s 745 mmHg 96%
17:00 +12°C° 0.2 mm 4 m/s 745 mmHg 96%
18:00 +11°C° 0.1 mm 3 m/s 746 mmHg 96%
19:00 +11°C° 0.1 mm 3 m/s 746 mmHg 96%
20:00 +11°C° 0.1 mm 3 m/s 747 mmHg 96%
21:00 +10°C° 0 mm 3 m/s 747 mmHg 96%
22:00 +10°C° 0 mm 2 m/s 748 mmHg 97%
23:00 +9°C° 0 mm 2 m/s 748 mmHg 97%

19 Mai, Mercredi

Heure Température Précipitation Vent Pression Humidité
00:00 +10°C° 0 mm 1 m/s 748 mmHg 96%
01:00 +9°C° 0 mm 1 m/s 748 mmHg 96%
02:00 +9°C° 0 mm 1 m/s 748 mmHg 95%
03:00 +8°C° 0 mm 0 m/s 748 mmHg 94%
04:00 +9°C° 0 mm 0 m/s 748 mmHg 93%
05:00 +9°C° 0 mm 0 m/s 748 mmHg 92%
06:00 +9°C° 1.2 mm 0 m/s 748 mmHg 94%
07:00 +10°C° 1.2 mm 1 m/s 748 mmHg 95%
08:00 +10°C° 1.2 mm 1 m/s 748 mmHg 97%
09:00 +11°C° 2.1 mm 1 m/s 748 mmHg 97%
10:00 +11°C° 2.1 mm 1 m/s 748 mmHg 97%
11:00 +11°C° 2.1 mm 1 m/s 748 mmHg 97%
12:00 +11°C° 0.7 mm 1 m/s 749 mmHg 95%
13:00 +12°C° 0.7 mm 2 m/s 749 mmHg 94%
14:00 +12°C° 0.7 mm 2 m/s 749 mmHg 92%
15:00 +12°C° 0.4 mm 2 m/s 749 mmHg 92%
16:00 +12°C° 0.4 mm 2 m/s 749 mmHg 91%
17:00 +12°C° 0.4 mm 2 m/s 749 mmHg 90%
18:00 +12°C° 0.3 mm 2 m/s 749 mmHg 91%
19:00 +11°C° 0.3 mm 3 m/s 749 mmHg 92%
20:00 +11°C° 0.3 mm 3 m/s 749 mmHg 92%
21:00 +10°C° 0 mm 3 m/s 750 mmHg 93%
22:00 +9°C° 0 mm 3 m/s 750 mmHg 94%
23:00 +7°C° 0 mm 4 m/s 750 mmHg 95%

20 Mai, Jeudi

Heure Température Précipitation Vent Pression Humidité
00:00 +7°C° 0 mm 3 m/s 750 mmHg 95%
01:00 +7°C° 0 mm 3 m/s 750 mmHg 96%
02:00 +5°C° 0 mm 3 m/s 751 mmHg 96%
03:00 +6°C° 0 mm 4 m/s 751 mmHg 95%
04:00 +6°C° 0 mm 4 m/s 751 mmHg 93%
05:00 +6°C° 0 mm 4 m/s 751 mmHg 91%
06:00 +7°C° 0 mm 4 m/s 751 mmHg 89%
07:00 +7°C° 0 mm 5 m/s 751 mmHg 86%
08:00 +8°C° 0 mm 5 m/s 751 mmHg 84%
09:00 +10°C° 0 mm 6 m/s 751 mmHg 75%
10:00 +13°C° 0 mm 6 m/s 751 mmHg 65%
11:00 +14°C° 0 mm 7 m/s 751 mmHg 56%
12:00 +15°C° 0.1 mm 7 m/s 752 mmHg 56%
13:00 +15°C° 0.1 mm 7 m/s 752 mmHg 57%
14:00 +15°C° 0.1 mm 7 m/s 752 mmHg 57%
15:00 +15°C° 0.1 mm 6 m/s 752 mmHg 57%
16:00 +15°C° 0.1 mm 6 m/s 752 mmHg 57%
17:00 +15°C° 0.1 mm 5 m/s 752 mmHg 57%
18:00 +14°C° 0.1 mm 5 m/s 752 mmHg 63%
19:00 +12°C° 0.1 mm 4 m/s 752 mmHg 68%
20:00 +11°C° 0.1 mm 4 m/s 752 mmHg 74%
21:00 +10°C° 0 mm 4 m/s 753 mmHg 78%
22:00 +9°C° 0 mm 3 m/s 753 mmHg 82%
23:00 +8°C° 0 mm 3 m/s 753 mmHg 85%
Voir plus

Nous avons besoin de votre consentement

Meteoprog et ses fournisseurs de services peuvent stocker et accéder à des données personnelles telles que des cookies, des identifiants d'appareils ou d'autres technologies similaires sur votre appareil et traiter ces données pour personnaliser le contenu et les publicités, ainsi que pour fournir des fonctionnalités de médias sociaux et analyser le trafic.

  • Stocker et/ou accéder à des informations sur votre appareil

    Des cookies, des identifiants d'appareils ou d'autres informations peuvent être stockés ou accessibles sur votre appareil aux fins indiquées ci-dessus.

  • Annonces et contenus personnalisés, mesure des annonces et des contenus, connaissance de l'audience et développement de produits

    Les annonces et le contenu peuvent être personnalisés en fonction d'un profil. D'autres données peuvent être ajoutées pour mieux personnaliser les annonces et le contenu. Les performances des publicités et du contenu peuvent être mesurées. Il est possible d'obtenir des informations sur le public qui a vu les publicités et le contenu. Ces données peuvent être utilisées pour développer ou améliorer l'expérience de l'utilisateur, les systèmes et les logiciels.

En cliquant sur "J'accepte", vous autorisez l'utilisation de cookies, des identifiants d'appareils, des balises web ou d'autres technologies similaires. Vos paramètres peuvent être modifiés dans le navigateur de votre appareil.

Dans certains cas, des intérêts légitimes peuvent être invoqués plutôt qu'un consentement. Vous pouvez en savoir plus à ce sujet dans notre Politique de confidentialité et de cookies.